BST,Max TemperatureF,Mean TemperatureF,Min TemperatureF,Max Dew PointF,MeanDew PointF,Min DewpointF,Max Humidity, Mean Humidity, Min Humidity, Max Sea Level PressureIn, Mean Sea Level PressureIn, Min Sea Level PressureIn, Max VisibilityMiles, Mean VisibilityMiles, Min VisibilityMiles, Max Wind SpeedMPH, Mean Wind SpeedMPH, Max Gust SpeedMPH,PrecipitationIn, CloudCover, Events, WindDirDegrees
2013-9-1,59,56,53,55,51,48,94,81,72,30.30,30.22,30.15,6,6,4,23,14,33,0.00,6,Rain,256
2013-9-2,64,62,59,59,58,55,94,88,82,30.27,30.18,30.12,6,6,5,20,15,26,0.00,6,Rain,249
2013-9-3,68,62,57,59,57,52,94,82,60,30.27,30.23,30.18,6,6,6,22,11,,0.00,5,,233
2013-9-4,68,59,50,55,52,48,100,77,56,30.18,30.03,29.92,6,6,6,18,8,17,0.00,4,Fog,212
2013-9-5,62,50,39,54,46,37,93,72,48,29.92,29.91,29.89,6,6,6,12,6,,0.00,4,,281
2013-9-6,57,47,37,48,44,36,100,86,63,29.95,29.91,29.89,6,6,4,10,4,,0.00,4,Fog-Rain,360
2013-9-7,59,52,46,52,47,45,100,81,63,29.92,29.81,29.74,6,6,3,20,7,38,0.00,6,Rain,97
2013-9-8,60,53,44,50,46,43,100,80,59,29.95,29.93,29.89,6,6,3,14,9,25,0.00,5,Fog-Rain,96
2013-9-9,64,52,41,52,48,41,100,87,56,30.18,30.04,29.95,6,6,0,13,4,,0.00,3,Fog-Rain,286
2013-9-10,64,55,46,50,47,43,94,77,56,30.24,30.21,30.18,6,6,6,17,8,,0.00,2,,279
2013-9-11,60,53,46,59,53,46,100,93,88,30.24,30.14,30.06,6,6,1,8,5,,0.00,6,Rain,253
2013-9-12,62,56,50,61,55,50,100,94,82,30.09,29.99,29.86,6,6,3,17,6,,0.00,6,Rain,238
2013-9-13,53,48,41,50,47,41,100,92,82,30.09,30.06,30.01,6,5,1,9,5,,0.00,5,Fog-Rain,256
2013-9-14,59,49,39,48,44,37,100,85,59,30.06,30.04,29.95,6,6,0,10,5,,0.00,3,Fog,260
2013-9-15,59,50,41,57,47,37,100,86,67,29.92,29.42,29.21,6,6,2,30,15,43,0.00,5,Rain,235
2013-9-16,55,47,39,46,43,37,100,84,71,29.36,29.32,29.30,6,6,3,23,11,29,0.00,6,Rain,259
2013-9-17,55,48,41,46,43,39,93,79,67,29.42,29.34,29.30,6,6,4,16,12,,0.00,5,Rain,265
2013-9-18,57,49,41,46,44,39,100,83,63,29.74,29.56,29.42,6,6,6,20,7,30,0.00,4,Rain,266
2013-9-19,53,50,46,54,48,43,100,95,87,29.77,29.62,29.50,6,5,0,12,6,,0.00,6,Fog-Rain,199
2013-9-20,59,52,46,50,48,43,100,83,67,30.04,29.95,29.80,6,6,6,22,10,,0.00,5,,229
2013-9-21,60,54,48,59,54,46,100,89,77,30.12,30.06,30.01,6,6,5,15,10,,0.00,6,,214
2013-9-22,68,62,55,59,57,54,100,87,68,30.30,30.23,30.12,6,6,6,22,14,,0.00,6,Rain,232
2013-9-23,64,58,51,59,57,52,100,93,83,30.27,30.21,30.12,6,6,2,10,3,,0.00,6,Fog,271
2013-9-24,60,58,57,59,57,55,100,97,94,30.09,30.02,29.95,6,4,1,12,5,,0.00,7,,57
2013-9-25,57,50,44,55,51,43,100,92,77,30.04,29.96,29.89,6,5,1,15,8,,0.00,7,,69
2013-9-26,57,50,42,52,47,41,100,86,72,30.09,30.07,30.04,6,6,4,12,7,,0.00,3,Rain,71
2013-9-27,59,55,51,55,54,50,100,96,88,30.06,29.99,29.92,6,5,2,6,4,,0.00,7,Rain,61
2013-9-28,66,55,44,55,52,45,100,85,68,29.92,29.88,29.83,6,3,0,14,4,,0.00,5,Fog,70
2013-9-29,64,56,48,52,48,46,94,79,59,29.92,29.89,29.86,6,6,5,16,10,,0.00,1,,71
2013-9-30,60,55,50,50,48,46,88,76,63,29.89,29.83,29.80,6,6,6,18,14,29,0.00,4,,73